Time,TemperatureF,DewpointF,PressureIn,WindDirection,WindDirectionDegrees,WindSpeedMPH,WindSpeedGustMPH,Humidity,HourlyPrecipIn,Conditions,Clouds,dailyrainin,SolarRadiationWatts/m^2,SoftwareType,DateUTC
2013-09-29 00:06:00,78.3,75.0,29.94,ESE,114,0.0,-999.0,90,-99.99,,,0.00,0,weatherlink.com 1.10,2013-09-29 05:06:00,
2013-09-29 00:22:00,78.3,75.0,29.94,ESE,114,0.0,-999.0,90,-99.99,,,0.00,0,weatherlink.com 1.10,2013-09-29 05:22:00,
2013-09-29 00:37:00,78.2,75.0,29.95,ESE,114,0.0,-999.0,91,-99.99,,,0.00,0,weatherlink.com 1.10,2013-09-29 05:37:00,
2013-09-29 00:52:00,78.0,75.0,29.95,ESE,114,0.0,-999.0,91,-99.99,,,0.00,0,weatherlink.com 1.10,2013-09-29 05:52:00,
2013-09-29 01:07:00,78.1,76.0,29.95,ESE,115,0.0,-999.0,92,-99.99,,,0.00,0,weatherlink.com 1.10,2013-09-29 06:07:00,
2013-09-29 01:22:00,78.3,76.0,29.95,ESE,114,0.0,-999.0,92,-99.99,,,0.00,0,weatherlink.com 1.10,2013-09-29 06:22:00,
2013-09-29 01:37:00,78.5,76.0,29.95,ESE,114,0.0,-999.0,92,-99.99,,,0.00,0,weatherlink.com 1.10,2013-09-29 06:37:00,
2013-09-29 01:52:00,78.7,76.0,29.95,ESE,114,0.0,-999.0,91,-99.99,,,0.00,0,weatherlink.com 1.10,2013-09-29 06:52:00,
2013-09-29 02:07:00,78.7,76.0,29.95,ESE,113,0.0,-999.0,91,-99.99,,,0.00,0,weatherlink.com 1.10,2013-09-29 07:07:00,
2013-09-29 02:22:00,78.7,76.0,29.95,ESE,113,0.0,-999.0,90,-99.99,,,0.00,0,weatherlink.com 1.10,2013-09-29 07:22:00,
2013-09-29 02:37:00,78.3,76.0,29.95,ESE,113,0.0,-999.0,91,-99.99,,,0.00,0,weatherlink.com 1.10,2013-09-29 07:37:00,
2013-09-29 02:52:00,77.9,75.0,29.95,ESE,113,0.0,-999.0,91,-99.99,,,0.00,0,weatherlink.com 1.10,2013-09-29 07:52:00,
2013-09-29 03:07:00,77.6,75.0,29.95,ESE,113,0.0,-999.0,92,-99.99,,,0.00,0,weatherlink.com 1.10,2013-09-29 08:07:00,
2013-09-29 03:22:00,77.5,75.0,29.94,ESE,113,0.0,-999.0,92,-99.99,,,0.00,0,weatherlink.com 1.10,2013-09-29 08:22:00,
2013-09-29 03:37:00,77.3,75.0,29.94,ESE,113,0.0,-999.0,92,-99.99,,,0.00,0,weatherlink.com 1.10,2013-09-29 08:37:00,
2013-09-29 03:52:00,77.1,75.0,29.94,ESE,113,0.0,-999.0,93,-99.99,,,0.00,0,weatherlink.com 1.10,2013-09-29 08:52:00,
2013-09-29 04:07:00,76.9,75.0,29.93,ESE,113,0.0,-999.0,93,-99.99,,,0.00,0,weatherlink.com 1.10,2013-09-29 09:07:00,
2013-09-29 04:22:00,76.6,75.0,29.93,ESE,113,0.0,-999.0,93,-99.99,,,0.00,0,weatherlink.com 1.10,2013-09-29 09:22:00,
2013-09-29 04:37:00,76.4,75.0,29.93,ESE,113,0.0,-999.0,94,-99.99,,,0.00,0,weatherlink.com 1.10,2013-09-29 09:37:00,
2013-09-29 04:52:00,76.3,75.0,29.93,ESE,113,0.0,-999.0,94,-99.99,,,0.00,0,weatherlink.com 1.10,2013-09-29 09:52:00,
2013-09-29 05:07:00,76.2,74.0,29.94,ESE,113,0.0,-999.0,94,-99.99,,,0.00,0,weatherlink.com 1.10,2013-09-29 10:07:00,
2013-09-29 05:22:00,76.1,74.0,29.95,ESE,113,0.0,-999.0,94,-99.99,,,0.00,0,weatherlink.com 1.10,2013-09-29 10:22:00,
2013-09-29 05:37:00,76.0,74.0,29.95,ESE,113,0.0,-999.0,94,-99.99,,,0.00,0,weatherlink.com 1.10,2013-09-29 10:37:00,
2013-09-29 05:52:00,76.0,74.0,29.94,ESE,113,0.0,-999.0,94,-99.99,,,0.00,0,weatherlink.com 1.10,2013-09-29 10:52:00,
2013-09-29 06:07:00,76.1,74.0,29.94,ESE,113,0.0,-999.0,94,-99.99,,,0.00,0,weatherlink.com 1.10,2013-09-29 11:07:00,
2013-09-29 06:22:00,76.3,75.0,29.94,ESE,113,0.0,-999.0,94,-99.99,,,0.00,0,weatherlink.com 1.10,2013-09-29 11:22:00,
2013-09-29 06:37:00,76.2,74.0,29.94,ESE,113,0.0,-999.0,94,-99.99,,,0.00,0,weatherlink.com 1.10,2013-09-29 11:37:00,
2013-09-29 06:52:00,76.0,74.0,29.94,ESE,113,0.0,-999.0,94,-99.99,,,0.00,0,weatherlink.com 1.10,2013-09-29 11:52:00,
2013-09-29 07:07:00,75.8,74.0,29.94,ESE,113,0.0,-999.0,94,-99.99,,,0.00,0,weatherlink.com 1.10,2013-09-29 12:07:00,
2013-09-29 07:22:00,75.6,74.0,29.94,ESE,113,0.0,-999.0,94,-99.99,,,0.00,7,weatherlink.com 1.10,2013-09-29 12:22:00,
2013-09-29 07:37:00,75.7,74.0,29.93,ESE,113,0.0,-999.0,95,-99.99,,,0.00,32,weatherlink.com 1.10,2013-09-29 12:37:00,
2013-09-29 07:52:00,76.2,75.0,29.94,ESE,113,0.0,-999.0,95,-99.99,,,0.00,69,weatherlink.com 1.10,2013-09-29 12:52:00,
2013-09-29 08:07:00,77.1,76.0,29.94,ESE,113,0.0,-999.0,95,-99.99,,,0.00,132,weatherlink.com 1.10,2013-09-29 13:07:00,
2013-09-29 08:22:00,79.0,77.0,29.95,SE,125,1.0,-999.0,93,-99.99,,,0.00,118,weatherlink.com 1.10,2013-09-29 13:22:00,
2013-09-29 08:37:00,80.6,78.0,29.95,South,178,2.0,-999.0,90,-99.99,,,0.00,202,weatherlink.com 1.10,2013-09-29 13:37:00,
2013-09-29 08:53:00,81.8,78.0,29.94,SSE,163,0.0,-999.0,88,-99.99,,,0.00,239,weatherlink.com 1.10,2013-09-29 13:53:00,
2013-09-29 09:08:00,82.5,78.0,29.95,SSE,164,3.0,-999.0,85,-99.99,,,0.00,188,weatherlink.com 1.10,2013-09-29 14:08:00,
2013-09-29 09:23:00,82.9,78.0,29.95,SW,233,0.0,-999.0,85,-99.99,,,0.00,165,weatherlink.com 1.10,2013-09-29 14:23:00,
2013-09-29 09:38:00,83.1,78.0,29.96,SSE,163,5.0,-999.0,85,-99.99,,,0.00,227,weatherlink.com 1.10,2013-09-29 14:38:00,
2013-09-29 09:53:00,83.2,78.0,29.95,SSE,162,0.0,-999.0,84,-99.99,,,0.00,162,weatherlink.com 1.10,2013-09-29 14:53:00,
2013-09-29 10:08:00,83.0,77.0,29.96,SSE,161,2.0,-999.0,82,-99.99,,,0.00,179,weatherlink.com 1.10,2013-09-29 15:08:00,
2013-09-29 10:23:00,83.2,77.0,29.95,SSE,153,0.0,-999.0,82,-99.99,,,0.00,243,weatherlink.com 1.10,2013-09-29 15:23:00,
2013-09-29 10:38:00,82.7,76.0,29.96,West,279,0.0,-999.0,79,-99.99,,,0.00,39,weatherlink.com 1.10,2013-09-29 15:38:00,
2013-09-29 10:53:00,80.0,75.0,29.95,WNW,292,0.0,-999.0,85,-99.99,,,0.03,130,weatherlink.com 1.10,2013-09-29 15:53:00,
2013-09-29 11:08:00,79.0,76.0,29.95,WNW,292,0.0,-999.0,90,-99.99,,,0.03,209,weatherlink.com 1.10,2013-09-29 16:08:00,
2013-09-29 11:23:00,79.1,76.0,29.96,WNW,292,0.0,-999.0,91,-99.99,,,0.03,287,weatherlink.com 1.10,2013-09-29 16:23:00,
2013-09-29 11:38:00,80.0,77.0,29.96,WNW,292,0.0,-999.0,91,-99.99,,,0.03,411,weatherlink.com 1.10,2013-09-29 16:38:00,
2013-09-29 11:53:00,81.4,78.0,29.95,WNW,292,0.0,-999.0,89,-99.99,,,0.03,649,weatherlink.com 1.10,2013-09-29 16:53:00,
2013-09-29 12:08:00,82.8,79.0,29.95,WNW,286,0.0,-999.0,87,-99.99,,,0.03,417,weatherlink.com 1.10,2013-09-29 17:08:00,
2013-09-29 12:23:00,84.0,78.0,29.94,WNW,291,1.0,-999.0,82,-99.99,,,0.03,250,weatherlink.com 1.10,2013-09-29 17:23:00,
2013-09-29 12:38:00,84.8,78.0,29.93,WNW,285,1.0,-999.0,79,-99.99,,,0.03,608,weatherlink.com 1.10,2013-09-29 17:38:00,
2013-09-29 12:53:00,85.7,78.0,29.93,WSW,255,2.0,-999.0,78,-99.99,,,0.03,719,weatherlink.com 1.10,2013-09-29 17:53:00,
2013-09-29 13:08:00,84.3,76.0,29.94,NNW,329,6.0,-999.0,76,-99.99,,,0.03,148,weatherlink.com 1.10,2013-09-29 18:08:00,
2013-09-29 13:23:00,79.3,75.0,29.95,NW,314,0.0,-999.0,87,-99.99,,,0.30,37,weatherlink.com 1.10,2013-09-29 18:23:00,
2013-09-29 13:38:00,77.4,75.0,29.93,NW,317,0.0,-999.0,92,-99.99,,,0.46,72,weatherlink.com 1.10,2013-09-29 18:38:00,
2013-09-29 14:08:00,76.9,75.0,29.93,NW,317,0.0,-999.0,94,-99.99,,,0.46,221,weatherlink.com 1.10,2013-09-29 19:08:00,
2013-09-29 14:23:00,76.9,75.0,29.93,NW,317,0.0,-999.0,94,-99.99,,,0.46,141,weatherlink.com 1.10,2013-09-29 19:23:00,
2013-09-29 14:38:00,77.0,76.0,29.91,NW,309,0.0,-999.0,95,-99.99,,,0.46,220,weatherlink.com 1.10,2013-09-29 19:38:00,
2013-09-29 14:55:00,77.0,75.0,29.90,NW,309,0.0,-999.0,94,-99.99,,,0.46,125,weatherlink.com 1.10,2013-09-29 19:55:00,
2013-09-29 15:08:00,77.0,76.0,29.90,NW,309,0.0,-999.0,95,-99.99,,,0.46,155,weatherlink.com 1.10,2013-09-29 20:08:00,
2013-09-29 15:23:00,77.3,76.0,29.90,NW,309,0.0,-999.0,95,-99.99,,,0.46,243,weatherlink.com 1.10,2013-09-29 20:23:00,
2013-09-29 15:38:00,77.3,76.0,29.89,East,99,0.0,-999.0,94,-99.99,,,0.46,218,weatherlink.com 1.10,2013-09-29 20:38:00,
2013-09-29 15:53:00,77.8,76.0,29.89,East,101,0.0,-999.0,93,-99.99,,,0.46,445,weatherlink.com 1.10,2013-09-29 20:53:00,
2013-09-29 16:08:00,79.6,76.0,29.89,ESE,114,0.0,-999.0,89,-99.99,,,0.46,315,weatherlink.com 1.10,2013-09-29 21:08:00,
2013-09-29 16:23:00,79.8,75.0,29.89,ESE,102,0.0,-999.0,86,-99.99,,,0.47,213,weatherlink.com 1.10,2013-09-29 21:23:00,
2013-09-29 16:38:00,79.7,75.0,29.89,SE,134,4.0,-999.0,86,-99.99,,,0.47,195,weatherlink.com 1.10,2013-09-29 21:38:00,
2013-09-29 16:53:00,79.7,75.0,29.89,ESE,117,1.0,-999.0,86,-99.99,,,0.47,132,weatherlink.com 1.10,2013-09-29 21:53:00,
2013-09-29 17:08:00,79.6,76.0,29.89,ESE,122,0.0,-999.0,87,-99.99,,,0.47,148,weatherlink.com 1.10,2013-09-29 22:08:00,
2013-09-29 17:23:00,79.7,76.0,29.88,ESE,110,0.0,-999.0,87,-99.99,,,0.47,116,weatherlink.com 1.10,2013-09-29 22:23:00,
2013-09-29 17:38:00,79.4,75.0,29.88,SE,138,0.0,-999.0,85,-99.99,,,0.47,74,weatherlink.com 1.10,2013-09-29 22:38:00,
2013-09-29 17:53:00,79.2,75.0,29.88,ESE,117,1.0,-999.0,86,-99.99,,,0.47,25,weatherlink.com 1.10,2013-09-29 22:53:00,
2013-09-29 18:08:00,78.7,75.0,29.88,ESE,115,0.0,-999.0,88,-99.99,,,0.47,19,weatherlink.com 1.10,2013-09-29 23:08:00,
2013-09-29 18:23:00,78.4,75.0,29.88,ESE,113,2.0,-999.0,88,-99.99,,,0.47,21,weatherlink.com 1.10,2013-09-29 23:23:00,
2013-09-29 18:38:00,78.1,74.0,29.88,ESE,113,0.0,-999.0,88,-99.99,,,0.47,7,weatherlink.com 1.10,2013-09-29 23:38:00,
2013-09-29 18:53:00,78.1,75.0,29.88,ESE,113,0.0,-999.0,89,-99.99,,,0.47,5,weatherlink.com 1.10,2013-09-29 23:53:00,
2013-09-29 19:09:00,78.2,75.0,29.88,ESE,113,0.0,-999.0,90,-99.99,,,0.47,0,weatherlink.com 1.10,2013-09-30 00:09:00,
2013-09-29 19:24:00,78.0,75.0,29.88,ESE,113,0.0,-999.0,91,-99.99,,,0.47,0,weatherlink.com 1.10,2013-09-30 00:24:00,
2013-09-29 19:39:00,77.7,75.0,29.89,ESE,113,0.0,-999.0,91,-99.99,,,0.47,0,weatherlink.com 1.10,2013-09-30 00:39:00,
2013-09-29 19:54:00,77.5,75.0,29.88,ESE,113,0.0,-999.0,92,-99.99,,,0.47,0,weatherlink.com 1.10,2013-09-30 00:54:00,
2013-09-29 20:09:00,77.3,75.0,29.88,ESE,113,0.0,-999.0,92,-99.99,,,0.47,0,weatherlink.com 1.10,2013-09-30 01:09:00,
2013-09-29 20:24:00,77.1,75.0,29.89,ESE,113,0.0,-999.0,93,-99.99,,,0.47,0,weatherlink.com 1.10,2013-09-30 01:24:00,
2013-09-29 20:39:00,77.0,75.0,29.89,ESE,113,0.0,-999.0,93,-99.99,,,0.47,0,weatherlink.com 1.10,2013-09-30 01:39:00,
2013-09-29 20:53:00,76.9,75.0,29.89,ESE,113,0.0,-999.0,93,-99.99,,,0.47,0,weatherlink.com 1.10,2013-09-30 01:53:00,
2013-09-29 21:08:00,76.9,75.0,29.90,ESE,113,0.0,-999.0,93,-99.99,,,0.47,0,weatherlink.com 1.10,2013-09-30 02:08:00,
2013-09-29 21:24:00,76.8,75.0,29.90,ESE,113,0.0,-999.0,93,-99.99,,,0.47,0,weatherlink.com 1.10,2013-09-30 02:24:00,
2013-09-29 21:39:00,76.7,75.0,29.90,ESE,113,0.0,-999.0,94,-99.99,,,0.47,0,weatherlink.com 1.10,2013-09-30 02:39:00,
2013-09-29 21:54:00,76.7,75.0,29.90,ESE,113,0.0,-999.0,94,-99.99,,,0.47,0,weatherlink.com 1.10,2013-09-30 02:54:00,
2013-09-29 22:08:00,76.6,75.0,29.90,ESE,113,0.0,-999.0,94,-99.99,,,0.47,0,weatherlink.com 1.10,2013-09-30 03:08:00,
2013-09-29 22:24:00,76.7,75.0,29.90,ESE,113,0.0,-999.0,94,-99.99,,,0.47,0,weatherlink.com 1.10,2013-09-30 03:24:00,
2013-09-29 22:39:00,76.7,75.0,29.91,ESE,113,0.0,-999.0,94,-99.99,,,0.47,0,weatherlink.com 1.10,2013-09-30 03:39:00,
2013-09-29 22:54:00,76.8,75.0,29.90,ESE,113,0.0,-999.0,94,-99.99,,,0.47,0,weatherlink.com 1.10,2013-09-30 03:54:00,
2013-09-29 23:09:00,77.0,75.0,29.90,ESE,113,0.0,-999.0,94,-99.99,,,0.47,0,weatherlink.com 1.10,2013-09-30 04:09:00,
2013-09-29 23:24:00,76.9,75.0,29.90,ESE,113,0.0,-999.0,94,-99.99,,,0.47,0,weatherlink.com 1.10,2013-09-30 04:24:00,
2013-09-29 23:39:00,76.8,75.0,29.89,ESE,113,0.0,-999.0,94,-99.99,,,0.47,0,weatherlink.com 1.10,2013-09-30 04:39:00,
2013-09-29 23:54:00,76.5,75.0,29.89,ESE,113,0.0,-999.0,94,-99.99,,,0.47,0,weatherlink.com 1.10,2013-09-30 04:54:00,